TimeCDT,TemperatureF,Dew PointF,Humidity,Sea Level PressureIn,VisibilityMPH,Wind Direction,Wind SpeedMPH,Gust SpeedMPH,PrecipitationIn,Events,Conditions,WindDirDegrees,DateUTC
12:52 AM,5.0,1.0,84,30.14,-9999.0,East,13.8,-,N/A,,Unknown,100,2013-03-21 05:52:00
3:52 AM,1.9,-2.9,80,30.11,-9999.0,East,11.5,-,N/A,,Unknown,100,2013-03-21 08:52:00
4:52 AM,1.0,-5.1,75,30.11,-9999.0,East,11.5,-,N/A,,Unknown,100,2013-03-21 09:52:00
5:52 AM,1.0,-5.1,75,30.09,-9999.0,ESE,12.7,-,N/A,,Unknown,110,2013-03-21 10:52:00
6:52 AM,-0.0,-5.1,79,30.09,-9999.0,ESE,10.4,-,N/A,,Unknown,110,2013-03-21 11:52:00
7:52 AM,-0.0,-5.1,79,30.09,-9999.0,ESE,15.0,-,N/A,,Unknown,110,2013-03-21 12:52:00
8:52 AM,1.9,-4.0,76,30.10,-9999.0,ESE,11.5,-,N/A,,Unknown,110,2013-03-21 13:52:00
9:52 AM,3.9,-2.0,76,30.09,-9999.0,ESE,13.8,-,N/A,,Unknown,110,2013-03-21 14:52:00
10:52 AM,9.0,1.0,70,30.08,-9999.0,ESE,16.1,-,N/A,,Unknown,120,2013-03-21 15:52:00
11:52 AM,12.0,3.0,67,30.06,-9999.0,ESE,15.0,-,N/A,,Unknown,110,2013-03-21 16:52:00
12:52 PM,17.1,7.0,65,30.05,-9999.0,ESE,12.7,-,N/A,,Unknown,120,2013-03-21 17:52:00
1:52 PM,18.0,10.0,71,30.05,-9999.0,East,16.1,-,N/A,,Unknown,100,2013-03-21 18:52:00
2:52 PM,18.0,9.0,68,30.04,-9999.0,ESE,19.6,-,N/A,,Unknown,110,2013-03-21 19:52:00
3:52 PM,19.0,10.0,68,30.03,-9999.0,East,19.6,-,N/A,,Unknown,100,2013-03-21 20:52:00
4:52 PM,18.0,10.0,71,30.04,-9999.0,ESE,17.3,-,N/A,,Unknown,110,2013-03-21 21:52:00
5:52 PM,18.0,10.0,71,30.05,-9999.0,ESE,18.4,-,N/A,,Unknown,110,2013-03-21 22:52:00
6:52 PM,17.1,10.0,74,30.05,-9999.0,ESE,17.3,24.2,N/A,,Unknown,110,2013-03-21 23:52:00
7:52 PM,15.1,8.1,74,30.09,-9999.0,ESE,16.1,-,N/A,,Unknown,110,2013-03-22 00:52:00
8:52 PM,14.0,8.1,77,30.11,-9999.0,ESE,13.8,-,N/A,,Unknown,110,2013-03-22 01:52:00
9:52 PM,12.9,8.1,81,30.12,-9999.0,ESE,12.7,-,N/A,,Unknown,110,2013-03-22 02:52:00
10:52 PM,12.9,7.0,77,30.12,-9999.0,ESE,13.8,-,N/A,,Unknown,120,2013-03-22 03:52:00
11:52 PM,12.9,7.0,77,30.11,-9999.0,ESE,10.4,-,N/A,,Unknown,120,2013-03-22 04:52:00